sat.trackr.live / text

‹ back to catalog

STARLINK-3045

NORAD 49173 · 2021-082AV

PAYLOAD ACTIVE UNKNOWN

§ Identity

Operator
Country
US
Launch date
2021-09-14
Launch site
AFWTR
Launch vehicle
Mass (kg)
RCS (m²)

Purposes: comms

External: N2YO · Heavens-Above · Gunter

§ Orbital elements

Epoch: 2026-09-20T02:04:04.550592Z

Period
94.09 min
Inclination
69.9975°
Eccentricity
0.0003165
Mean motion
15.30415858 rev/d
Perigee alt
472.4 km
Apogee alt
476.7 km
Semi-major
6,852.7 km
B*
6.3874e-5
RAAN
142.2717°
Arg perigee
277.8482°
Mean anomaly
82.2334°
Rev number
27,564

§ Raw data

STARLINK-30451 49173U 21082AV  26263.08616378  .00001755  00000+0  63874-4 0  99942 49173  69.9975 142.2717 0003165 277.8482  82.2334 15.30415858275644

JSON: /api/v1/satellites/49173 · /tle

For live sub-satellite position, see the globe view (requires WebGL).

§ Visibility from observer

Set your observer location to see the next 7 days of passes ≥ 10°. The values pass through the URL so the page stays shareable.

No JS? Fill the form by hand. The geolocation button needs JavaScript.